Skip Page Navigation
NASA JPL Caltech
NASA Logo - Jet Propulsion Laboratory + View the NASA Portal
+ Near-Earth Object (NEO) Program
Search JPL
JPL Home Earth Solar System Stars & Galaxies Technology
JPL Solar System Dynamics
BODIES ORBITS EPHEMERIDES TOOLS PHYSICAL DATA DISCOVERY FAQ SITE MAP
JPL Small-Body Database Browser
Search: [ help ]  
(2009 FY4)
Classification: Apollo [NEO, PHA]          SPK-ID: 3454735
Ephemeris | Orbit Diagram | Orbital Elements | Physical Parameters | Close-Approach Data ]

[ hide orbit diagram ]
Orbit Diagram
Note: Make sure you have Java enabled on your browser to see the applet. This applet is provided as a 3D orbit visualization tool. The applet was implemented using 2-body methods, and hence should not be used for determining accurate long-term trajectories (over several years or decades) or planetary encounter circumstances. For accurate long-term ephemerides, please instead use our Horizons system.
Orbit Viewer

Additional Notes: the orbits shown in the applet are color coded. The planets are white lines, and the asteroid/comet is a blue line. The bright white line indicates the portion of the orbit that is above the ecliptic plane, and the darker portion is below the ecliptic plane. Likewise for the asteroid/comet orbit, the light blue indicates the portion above the ecliptic plane, and the dark blue the portion below the ecliptic plane.

Orbit Viewer applet originally written and kindly provided by Osamu Ajiki (AstroArts), and further modified by Ron Baalke (JPL).


Orbital Elements at Epoch 2456400.5 (2013-Apr-18.0) TDB
Reference: JPL 33 (heliocentric ecliptic J2000)
 Element Value Uncertainty (1-sigma)   Units 
e .3273514818486536 4.8785e-07  
a 1.01249575384186 1.9266e-08 AU
q .6810537684562579 4.8456e-07 AU
i 20.98225650829865 2.9911e-05 deg
node 162.6500381919161 6.6261e-06 deg
peri 244.6186480723626 2.7401e-05 deg
M 105.2941521858507 5.4183e-05 deg
tp 2456291.659633877298
(2012-Dec-30.15963388)
5.3473e-05 JED
period 372.1244816617477
1.02
1.0621e-05
2.908e-08
d
yr
n .9674182101440761 2.7612e-08 deg/d
Q 1.343937739227463 2.5573e-08 AU
  Orbit Determination Parameters
   # obs. used (total)      204  
   data-arc span      1087 days (2.98 yr)  
   first obs. used      2009-03-19  
   last obs. used      2012-03-10  
   planetary ephem.      DE405  
   SB-pert. ephem.      SB405-CPV-2  
   condition code      0  
   fit RMS      .44229  
   data source      ORB  
   producer      Otto Matic  
   solution date      2012-Mar-10 23:50:08  

Additional Information
 Earth MOID = .043184 AU 
 T_jup = 5.917 
[ show covariance matrix ]

Ephemeris | Orbit Diagram | Orbital Elements | Physical Parameters | Close-Approach Data ]

Physical Parameter Table
Parameter Symbol Value Units Sigma Reference Notes
absolute magnitude H 21.001 mag .4545 33 autocmod 2.5b

[ show close-approach data ]
Ephemeris | Orbit Diagram | Orbital Elements | Physical Parameters | Close-Approach Data ]
ABOUT SSD CREDITS/AWARDS PRIVACY/COPYRIGHT GLOSSARY LINKS
FirstGov 2013-May-21 14:25 UT
(server date/time)  
NASA Home Page
Site Manager:   Donald K. Yeomans
Webmaster  Alan B. Chamberlin